• In Latvia
  • List of Countries
  • For 7 days
  • Water Temperature
  • Satellite Maps
  • Weather Map
  • Weather Widgets
  • user-avatar
    Login

    Hourly Weather Ramenki

    Today, 25 May, Friday

    Time Temperature Precipitation Wind Pressure Humidity
    00:00 +11°C° 0 mm 3 mps 745 mmHg 90%
    01:00 +10°C° 0 mm 3 mps 745 mmHg 89%
    02:00 +9°C° 0 mm 3 mps 746 mmHg 88%
    03:00 +9°C° 0 mm 3 mps 746 mmHg 84%
    04:00 +9°C° 0 mm 3 mps 746 mmHg 79%
    05:00 +9°C° 0 mm 3 mps 747 mmHg 75%
    06:00 +10°C° 0 mm 3 mps 747 mmHg 66%
    07:00 +12°C° 0 mm 3 mps 747 mmHg 56%
    08:00 +13°C° 0 mm 3 mps 748 mmHg 47%
    09:00 +14°C° 0 mm 3 mps 748 mmHg 44%
    10:00 +16°C° 0 mm 3 mps 748 mmHg 42%
    11:00 +17°C° 0 mm 3 mps 748 mmHg 39%
    12:00 +18°C° 0 mm 3 mps 748 mmHg 39%
    13:00 +18°C° 0 mm 3 mps 748 mmHg 39%
    14:00 +19°C° 0 mm 3 mps 748 mmHg 39%
    15:00 +19°C° 0 mm 3 mps 748 mmHg 41%
    16:00 +18°C° 0 mm 3 mps 748 mmHg 43%
    17:00 +18°C° 0 mm 3 mps 748 mmHg 45%
    18:00 +16°C° 0 mm 2 mps 748 mmHg 52%
    19:00 +14°C° 0 mm 2 mps 749 mmHg 59%
    20:00 +12°C° 0 mm 2 mps 749 mmHg 67%
    21:00 +11°C° 0 mm 1 mps 749 mmHg 68%
    22:00 +10°C° 0 mm 1 mps 749 mmHg 68%
    23:00 +9°C° 0 mm 1 mps 750 mmHg 69%

    Tomorrow, 26 May, Saturday

    Time Temperature Precipitation Wind Pressure Humidity
    00:00 +9°C° 0 mm 1 mps 750 mmHg 70%
    01:00 +8°C° 0 mm 1 mps 751 mmHg 70%
    02:00 +8°C° 0 mm 1 mps 751 mmHg 70%
    03:00 +9°C° 0 mm 1 mps 751 mmHg 70%
    04:00 +9°C° 0 mm 1 mps 752 mmHg 70%
    05:00 +9°C° 0 mm 0 mps 752 mmHg 69%
    06:00 +12°C° 0 mm 1 mps 752 mmHg 62%
    07:00 +15°C° 0 mm 1 mps 752 mmHg 55%
    08:00 +18°C° 0 mm 1 mps 753 mmHg 47%
    09:00 +19°C° 0 mm 1 mps 752 mmHg 44%
    10:00 +19°C° 0 mm 2 mps 752 mmHg 41%
    11:00 +20°C° 0 mm 2 mps 752 mmHg 37%
    12:00 +21°C° 0 mm 2 mps 752 mmHg 37%
    13:00 +21°C° 0 mm 2 mps 752 mmHg 37%
    14:00 +21°C° 0 mm 2 mps 751 mmHg 37%
    15:00 +21°C° 0 mm 2 mps 751 mmHg 40%
    16:00 +21°C° 0 mm 2 mps 750 mmHg 43%
    17:00 +20°C° 0 mm 2 mps 750 mmHg 45%
    18:00 +18°C° 0 mm 2 mps 750 mmHg 53%
    19:00 +16°C° 0 mm 2 mps 750 mmHg 61%
    20:00 +14°C° 0 mm 2 mps 750 mmHg 69%
    21:00 +13°C° 0 mm 2 mps 750 mmHg 70%
    22:00 +13°C° 0 mm 2 mps 750 mmHg 71%
    23:00 +12°C° 0 mm 2 mps 750 mmHg 72%

    Day after tomorrow, 27 May, Sunday

    Time Temperature Precipitation Wind Pressure Humidity
    00:00 +10°C° 0 mm 2 mps 750 mmHg 74%
    01:00 +10°C° 0 mm 2 mps 750 mmHg 76%
    02:00 +9°C° 0 mm 2 mps 750 mmHg 77%
    03:00 +10°C° 0 mm 2 mps 750 mmHg 77%
    04:00 +10°C° 0 mm 3 mps 750 mmHg 77%
    05:00 +11°C° 0 mm 3 mps 750 mmHg 76%
    06:00 +13°C° 0 mm 3 mps 750 mmHg 70%
    07:00 +16°C° 0 mm 3 mps 749 mmHg 64%
    08:00 +18°C° 0 mm 3 mps 749 mmHg 59%
    09:00 +19°C° 0 mm 3 mps 749 mmHg 54%
    10:00 +20°C° 0 mm 3 mps 749 mmHg 49%
    11:00 +22°C° 0 mm 3 mps 748 mmHg 45%
    12:00 +22°C° 0 mm 3 mps 748 mmHg 44%
    13:00 +24°C° 0 mm 3 mps 748 mmHg 43%
    14:00 +23°C° 0 mm 4 mps 747 mmHg 43%
    15:00 +24°C° 0 mm 3 mps 747 mmHg 46%
    16:00 +24°C° 0 mm 3 mps 746 mmHg 48%
    17:00 +22°C° 0 mm 3 mps 746 mmHg 51%
    18:00 +20°C° 0 mm 3 mps 746 mmHg 59%
    19:00 +19°C° 0 mm 2 mps 746 mmHg 68%
    20:00 +17°C° 0 mm 2 mps 746 mmHg 76%
    21:00 +16°C° 0 mm 2 mps 746 mmHg 75%
    22:00 +14°C° 0 mm 2 mps 747 mmHg 75%
    23:00 +13°C° 0 mm 2 mps 747 mmHg 75%

    28 May, Monday

    Time Temperature Precipitation Wind Pressure Humidity
    00:00 +12°C° 0 mm 2 mps 747 mmHg 74%
    01:00 +10°C° 0 mm 2 mps 747 mmHg 73%
    02:00 +8°C° 0 mm 2 mps 748 mmHg 71%
    03:00 +9°C° 0 mm 2 mps 748 mmHg 73%
    04:00 +9°C° 0 mm 2 mps 748 mmHg 75%
    05:00 +10°C° 0 mm 2 mps 749 mmHg 76%
    06:00 +13°C° 0 mm 2 mps 749 mmHg 68%
    07:00 +15°C° 0 mm 2 mps 750 mmHg 60%
    08:00 +16°C° 0 mm 3 mps 750 mmHg 53%
    09:00 +17°C° 0 mm 3 mps 750 mmHg 47%
    10:00 +19°C° 0 mm 3 mps 750 mmHg 42%
    11:00 +20°C° 0 mm 3 mps 751 mmHg 37%
    12:00 +20°C° 0 mm 3 mps 751 mmHg 36%
    13:00 +20°C° 0 mm 3 mps 750 mmHg 35%
    14:00 +21°C° 0 mm 2 mps 750 mmHg 33%
    15:00 +20°C° 0 mm 2 mps 750 mmHg 35%
    16:00 +20°C° 0 mm 2 mps 750 mmHg 37%
    17:00 +20°C° 0 mm 2 mps 750 mmHg 39%
    18:00 +18°C° 0 mm 2 mps 750 mmHg 46%
    19:00 +15°C° 0 mm 1 mps 750 mmHg 54%
    20:00 +13°C° 0 mm 1 mps 750 mmHg 61%
    21:00 +12°C° 0 mm 1 mps 750 mmHg 62%
    22:00 +12°C° 0 mm 1 mps 751 mmHg 63%
    23:00 +11°C° 0 mm 1 mps 751 mmHg 64%

    29 May, Tuesday

    Time Temperature Precipitation Wind Pressure Humidity
    00:00 +10°C° 0 mm 1 mps 751 mmHg 65%
    01:00 +10°C° 0 mm 1 mps 751 mmHg 65%
    02:00 +10°C° 0 mm 1 mps 751 mmHg 66%
    03:00 +10°C° 0 mm 1 mps 751 mmHg 67%
    04:00 +11°C° 0 mm 1 mps 751 mmHg 67%
    05:00 +11°C° 0 mm 1 mps 751 mmHg 68%
    06:00 +13°C° 0 mm 2 mps 751 mmHg 61%
    07:00 +16°C° 0 mm 2 mps 751 mmHg 54%
    08:00 +18°C° 0 mm 2 mps 751 mmHg 48%
    09:00 +19°C° 0 mm 2 mps 751 mmHg 44%
    10:00 +21°C° 0 mm 2 mps 750 mmHg 40%
    11:00 +23°C° 0 mm 2 mps 750 mmHg 36%
    12:00 +24°C° 0 mm 2 mps 749 mmHg 35%
    13:00 +25°C° 0 mm 2 mps 749 mmHg 35%
    14:00 +25°C° 0 mm 3 mps 748 mmHg 35%
    15:00 +25°C° 0 mm 3 mps 748 mmHg 37%
    16:00 +25°C° 0 mm 3 mps 747 mmHg 40%
    17:00 +25°C° 0 mm 3 mps 746 mmHg 43%
    18:00 +21°C° 0 mm 2 mps 746 mmHg 51%
    19:00 +19°C° 0 mm 2 mps 746 mmHg 60%
    20:00 +17°C° 0 mm 2 mps 745 mmHg 69%
    21:00 +16°C° 0 mm 2 mps 745 mmHg 72%
    22:00 +16°C° 0 mm 2 mps 745 mmHg 76%
    23:00 +15°C° 0 mm 2 mps 745 mmHg 80%

    30 May, Wednesday

    Time Temperature Precipitation Wind Pressure Humidity
    00:00 +14°C° 0 mm 2 mps 745 mmHg 83%
    01:00 +14°C° 0 mm 2 mps 744 mmHg 86%
    02:00 +14°C° 0 mm 2 mps 744 mmHg 90%
    03:00 +13°C° 0 mm 3 mps 744 mmHg 86%
    04:00 +13°C° 0 mm 3 mps 743 mmHg 83%
    05:00 +14°C° 0 mm 3 mps 743 mmHg 80%
    06:00 +17°C° 0 mm 3 mps 743 mmHg 71%
    07:00 +19°C° 0 mm 4 mps 743 mmHg 61%
    08:00 +21°C° 0 mm 4 mps 742 mmHg 52%
    09:00 +22°C° 0 mm 4 mps 742 mmHg 48%
    10:00 +25°C° 0 mm 5 mps 742 mmHg 44%
    11:00 +26°C° 0 mm 5 mps 741 mmHg 40%
    12:00 +26°C° 0 mm 5 mps 741 mmHg 39%
    13:00 +27°C° 0 mm 5 mps 740 mmHg 39%
    14:00 +27°C° 0 mm 5 mps 740 mmHg 38%
    15:00 +27°C° 0 mm 5 mps 740 mmHg 41%
    16:00 +26°C° 0 mm 4 mps 739 mmHg 43%
    17:00 +26°C° 0 mm 4 mps 739 mmHg 46%
    18:00 +23°C° 0 mm 4 mps 739 mmHg 52%
    19:00 +21°C° 0 mm 3 mps 739 mmHg 58%
    20:00 +20°C° 0 mm 3 mps 739 mmHg 64%
    21:00 +18°C° 0 mm 3 mps 739 mmHg 62%
    22:00 +17°C° 0 mm 3 mps 740 mmHg 61%
    23:00 +14°C° 0 mm 3 mps 740 mmHg 59%
    Show more